[Iaude] MPEC A82: 2024 AS1 [a=1.81,e=0.61,i=4.0,H=27.3]

mpec at marsden.cfa.harvard.edu mpec at marsden.cfa.harvard.edu
Mon Jan 8 19:39:25 EST 2024


M.P.E.C. 2024-A82                               Issued 2024 January 9, 00:37 UT

     The Minor Planet Electronic Circulars contain information on unusual
         minor planets, routine data on comets and natural satellites,
         and occasional editorial announcements.  They are published
    on behalf of Division F of the International Astronomical Union by the
          Minor Planet Center, Smithsonian Astrophysical Observatory,
                          Cambridge, MA 02138, U.S.A.
			  
             Prepared using the Tamkin Foundation Computer Network

                              MPC at CFA.HARVARD.EDU
            URL https://www.minorplanetcenter.net/    ISSN 1523-6714

                                    2024 AS1                                    


Observations:
     K24A01S  C2024 01 03.38266506 48 45.158+34 04 57.45         21.57GVEA082F51
     K24A01S  C2024 01 03.41669806 48 40.816+34 06 07.63         21.38GVEA082F51
     K24A01S* C2024 01 07.42634806 36 36.550+39 50 58.56         19.61wXEA082F51
     K24A01S  C2024 01 07.43763506 36 28.422+39 53 31.22         19.67wXEA082F51
     K24A01S  C2024 01 07.44884106 36 20.285+39 56 03.10         19.73wXEA082F51
     K24A01S  C2024 01 07.46014406 36 12.037+39 58 36.19         19.74wXEA082F51
     K24A01S  C2024 01 07.58940206 34 36.912+40 28 23.11               VEA082F52
     K24A01S  C2024 01 07.58987206 34 36.550+40 28 30.12         19.50GVEA082F52
     K24A01S KB2024 01 08.00374406 29 41.66 +42 39 32.3          19.1 GXEA082958
     K24A01S KB2024 01 08.00611506 29 38.81 +42 40 27.5          18.8 GXEA082958
     K24A01S KB2024 01 08.00845506 29 36.06 +42 41 21.0          19.1 GXEA082958
     K24A01S KB2024 01 08.05681306 29 24.048+43 00 11.41         18.9 GXEA082W34
     K24A01S KB2024 01 08.06508306 29 14.196+43 03 47.84         19.3 GXEA082W34
     K24A01S KB2024 01 08.07335506 29 04.135+43 07 25.25         19.3 GXEA082W34
     K24A01S  C2024 01 08.49771 06 18 29.67 +46 58 59.2          19.0 RmEA082P93
     K24A01S  C2024 01 08.50094 06 18 21.98 +47 01 21.1          18.8 RmEA082P93
     K24A01S  C2024 01 08.50202 06 18 19.40 +47 02 08.9          18.8 RmEA082P93
     K24A01S KC2024 01 08.63324 06 13 32.52 +48 43 57.9          19.5 VqEA082C97
     K24A01S KC2024 01 08.63799 06 13 18.79 +48 48 10.7          22.3 VqEA082C97
     K24A01S KC2024 01 08.76708 06 06 05.05 +50 47 42.3          18.2 GXEA082G02
     K24A01S KC2024 01 08.77651 06 05 27.18 +50 58 02.9          18.4 GXEA082G02
     K24A01S KB2024 01 08.85020 06 00 00.42 +52 22 27.5          19.2 GVEA082L65
     K24A01S KB2024 01 08.86245 05 58 58.18 +52 37 41.9          18.3 GVEA082L65
     K24A01S KB2024 01 08.87466 05 57 53.77 +52 53 10.3          18.6 GVEA082L65
     K24A01S KB2024 01 08.94892005 50 36.94 +54 36 11.4          18.0 GXEA082I93
     K24A01S KB2024 01 08.95059305 50 25.52 +54 38 35.6          18.3 GXEA082I93
     K24A01S KB2024 01 08.95221105 50 14.40 +54 40 56.1          17.8 GXEA082I93
     K24A01S KC2024 01 08.96160405 48 49.18 +54 53 48.5          18.1 GVEA082L01
     K24A01S KC2024 01 08.96239005 48 43.61 +54 54 57.2          18.3 GVEA082L01
     K24A01S KC2024 01 08.96337605 48 36.62 +54 56 23.0          18.0 GVEA082L01
     K24A01S KC2024 01 08.96396405 48 32.39 +54 57 14.4          18.1 GVEA082L01
     K24A01S KC2024 01 08.96475005 48 26.81 +54 58 22.9          18.1 GVEA082L01
     K24A01S KB2024 01 08.97379205 47 32.341+55 10 28.69         18.6 GXEA082B72
     K24A01S KB2024 01 08.97693305 47 09.271+55 15 08.59         18.3 GXEA082B72
     K24A01S KB2024 01 08.98006505 46 46.071+55 19 49.52         18.5 GXEA082B72

Observer details:
958 Observatoire de Dax.  Observer P. Dupouy.  0.50-m f/4.5 Reflector + CMO.
B72 Soerth.  Observer B. Koch.  0.36-m f/7.6 reflector + CMO.
C97 Al-Fulaij Observatory, Oman.  Observers M. Al-Hadi, A. Al-Ruqaishi, M. Al-
    Anqodi, K. Al-Araimi.  0.61-m f/7.8 reflector + CCD.
F51 Pan-STARRS 1, Haleakala.  Observers J. Herman, T. Lowe, P. Minguez, A.
    Schultz, I. Smith.  Measurers K. Chambers, T. de Boer, J. Fairlamb, H.
    Gao, M. Huber, C.-C. Lin, E. Magnier, Y. Ramanjooloo, R. Wainscoat, R.
    Weryk.  1.8-m Ritchey-Chretien + CCD.
F52 Pan-STARRS 2, Haleakala.  Observers J. Herman, T. Lowe, P. Minguez, A.
    Schultz, I. Smith.  Measurers K. Chambers, T. de Boer, J. Fairlamb, H.
    Gao, M. Huber, C.-C. Lin, E. Magnier, Y. Ramanjooloo, R. Wainscoat, R.
    Weryk.  1.8-m Ritchey-Chretien + CCD.
G02 KYSUCE Observatory, Kysucke Nove Mesto.  Observer M. Urbanik.  0.40-m
    f/6.8 Corrected Dall-Kirkham + CCD.
I93 St Pardon de Conques.  Observer F. Losse.  0.40-m f/3.7 reflector + CMO.
L01 Visnjan Observatory, Tican.  Observer K. Korlevic.  1.0-m f/2.9 reflector
    + CCD.
L65 Bredenkamp Observatory, Bremen.  Observer H. Duin.  0.23-m f/6.3 reflector
    + CMO.
P93 Space Tracking and Communications Center, JAXA.  Observers T. Fujiwara, D.
    Kuroda.  1.0-m f/3.0 reflector + CCD.
W34 Squirrel Valley Observatory, Columbus.  Observer R. L. Flynn.  0.36-m
    f/1.9 Aplanatic Schmidt Cassegrain + CMO.

Orbital elements:
2024 AS1                                                 Earth MOID = 0.0037 AU
Epoch 2023 Sept. 13.0 TT = JDT 2460200.5                MPC                     
M 293.49285              (2000.0)            P               Q                  
n   0.40536020     Peri.  252.37170     -0.99569083     +0.06614689             
a   1.8081813      Node   291.38151     -0.03281937     -0.90685902             
e   0.6098406      Incl.    4.00245     -0.08673328     -0.41621065             
P   2.43           H   27.37          G   0.15           U   7                  
Residuals in seconds of arc
240103 F51  0.1+  0.1+    240108 W34  0.0   0.6+    240108 I93  0.2-  0.3+
240103 F51  0.1-  0.0     240108 W34  0.1-  0.3+    240108 I93  0.1-  0.1-
240107 F51  0.3-  0.4+    240108 P93  0.1+  0.0     240108 I93  0.2-  0.3+
240107 F51  0.1-  0.2+    240108 P93  0.1-  0.0     240108 L01  0.2+  1.0-
240107 F51  0.0   0.1+    240108 P93  0.1-  0.2+    240108 L01  0.2+  0.6-
240107 F51  0.2+  0.4-    240108 C97 (2.3-  7.0+)   240108 L01  0.4+  0.7-
240107 F52  0.2+  0.3-    240108 C97  0.2+  0.7+    240108 L01  0.1+  0.5-
240107 F52  0.1-  0.0     240108 G02  0.7+  0.0     240108 L01  0.4+  0.6-
240108 958  0.0   0.2-    240108 G02  0.3+  0.2-    240108 B72  0.3-  0.3+
240108 958  0.3-  0.5+    240108 L65 (1.5+  1.6-)   240108 B72  0.5-  0.2+
240108 958  0.3+  0.1+    240108 L65 (1.6+  2.0-)   240108 B72  0.4-  0.7+
240108 W34  0.1-  0.4+    240108 L65 (1.2+  2.1-)

Ephemeris:
2024 AS1                 a,e,i = 1.81, 0.61, 4                   q = 0.7055
Date    TT    R. A. (2000) Decl.     Delta      r    Elong.  Phase     V
2023 12 10    06 49 29.0 +30 39 15   0.3202  1.2831   155.4    18.6    26.4
...
2023 12 25    06 52 04.4 +31 50 31   0.1559  1.1363   167.6    10.7    24.3
...
2024 01 02    06 49 50.6 +33 27 07   0.07561 1.0577   169.5     9.7    22.5
...
2024 01 08    06 29 51.6 +42 37 58   0.01746 0.9996   157.8    21.8    19.6
2024 01 09    05 44 57.8 +55 48 24   0.0083060.9900   142.3    37.4    18.5
2024 01 10    20 14 29.3 +24 45 15   0.0045270.9804    48.6   131.2    21.4
...
2024 01 16    19 00 42.4 -27 36 09   0.06073 0.9245    12.5   166.7
...
2024 01 24    18 58 59.8 -29 19 24   0.1407  0.8547    21.2   155.4    32.4
...
2024 02 08    19 09 48.4 -29 00 57   0.3064  0.7506    33.6   133.3    30.2

A. U. Tomatic                (C) Copyright 2024 MPC           M.P.E.C. 2024-A82





More information about the Iaude mailing list